• In Hungary
  • List of Countries
  • For 7 days
  • Water Temperature
  • Satellite Maps
  • Weather Map
  • News
  • Weather Widgets
  • user-avatar
    Login

    Hourly Weather Igenchelyar

    Today, 18 June, Monday

    Time Temperature Precipitation Wind Pressure Humidity
    00:00 +9°C° 0 mm 2 mps 745 mmHg 96%
    01:00 +8°C° 0 mm 2 mps 745 mmHg 96%
    02:00 +8°C° 0 mm 2 mps 745 mmHg 97%
    03:00 +8°C° 0 mm 1 mps 745 mmHg 97%
    04:00 +8°C° 0 mm 1 mps 745 mmHg 97%
    05:00 +9°C° 0 mm 2 mps 745 mmHg 95%
    06:00 +10°C° 0 mm 2 mps 745 mmHg 93%
    07:00 +12°C° 0 mm 2 mps 745 mmHg 91%
    08:00 +13°C° 0 mm 3 mps 745 mmHg 84%
    09:00 +14°C° 0 mm 3 mps 745 mmHg 78%
    10:00 +17°C° 0 mm 4 mps 744 mmHg 72%
    11:00 +17°C° 0 mm 4 mps 744 mmHg 72%
    12:00 +18°C° 0 mm 4 mps 744 mmHg 72%
    13:00 +19°C° 0 mm 3 mps 744 mmHg 73%
    14:00 +19°C° 0.2 mm 4 mps 744 mmHg 72%
    15:00 +20°C° 0.2 mm 4 mps 744 mmHg 72%
    16:00 +21°C° 0.2 mm 4 mps 744 mmHg 72%
    17:00 +20°C° 0.3 mm 3 mps 743 mmHg 76%
    18:00 +20°C° 0.3 mm 3 mps 743 mmHg 80%
    19:00 +19°C° 0.3 mm 3 mps 743 mmHg 84%
    20:00 +18°C° 0 mm 2 mps 743 mmHg 87%
    21:00 +16°C° 0 mm 2 mps 743 mmHg 90%
    22:00 +14°C° 0 mm 2 mps 744 mmHg 94%
    23:00 +14°C° 0 mm 1 mps 743 mmHg 94%

    Tomorrow, 19 June, Tuesday

    Time Temperature Precipitation Wind Pressure Humidity
    00:00 +13°C° 0 mm 1 mps 743 mmHg 94%
    01:00 +13°C° 0 mm 1 mps 743 mmHg 94%
    02:00 +13°C° 0 mm 1 mps 743 mmHg 95%
    03:00 +12°C° 0 mm 1 mps 744 mmHg 95%
    04:00 +12°C° 0 mm 1 mps 744 mmHg 95%
    05:00 +14°C° 0 mm 1 mps 744 mmHg 92%
    06:00 +15°C° 0 mm 1 mps 744 mmHg 90%
    07:00 +18°C° 0 mm 1 mps 744 mmHg 87%
    08:00 +18°C° 0 mm 2 mps 744 mmHg 81%
    09:00 +20°C° 0 mm 2 mps 744 mmHg 75%
    10:00 +22°C° 0 mm 3 mps 744 mmHg 69%
    11:00 +24°C° 0.1 mm 3 mps 744 mmHg 65%
    12:00 +23°C° 0.1 mm 4 mps 743 mmHg 60%
    13:00 +25°C° 0.1 mm 4 mps 743 mmHg 56%
    14:00 +25°C° 0.4 mm 4 mps 743 mmHg 60%
    15:00 +25°C° 0.4 mm 4 mps 743 mmHg 64%
    16:00 +23°C° 0.4 mm 4 mps 743 mmHg 68%
    17:00 +23°C° 0.2 mm 4 mps 743 mmHg 71%
    18:00 +22°C° 0.2 mm 3 mps 743 mmHg 75%
    19:00 +21°C° 0.2 mm 3 mps 743 mmHg 79%
    20:00 +19°C° 0 mm 2 mps 743 mmHg 82%
    21:00 +18°C° 0 mm 2 mps 744 mmHg 85%
    22:00 +16°C° 0 mm 1 mps 744 mmHg 88%
    23:00 +15°C° 0 mm 1 mps 744 mmHg 89%

    Day after tomorrow, 20 June, Wednesday

    Time Temperature Precipitation Wind Pressure Humidity
    00:00 +15°C° 0 mm 1 mps 744 mmHg 90%
    01:00 +15°C° 0 mm 2 mps 744 mmHg 91%
    02:00 +14°C° 0 mm 2 mps 744 mmHg 91%
    03:00 +14°C° 0 mm 2 mps 744 mmHg 92%
    04:00 +14°C° 0 mm 2 mps 744 mmHg 92%
    05:00 +15°C° 0 mm 2 mps 744 mmHg 90%
    06:00 +17°C° 0 mm 2 mps 744 mmHg 89%
    07:00 +18°C° 0 mm 2 mps 744 mmHg 87%
    08:00 +19°C° 0.3 mm 2 mps 744 mmHg 81%
    09:00 +21°C° 0.3 mm 3 mps 744 mmHg 74%
    10:00 +24°C° 0.3 mm 3 mps 744 mmHg 68%
    11:00 +23°C° 0.4 mm 4 mps 744 mmHg 67%
    12:00 +25°C° 0.4 mm 4 mps 743 mmHg 67%
    13:00 +25°C° 0.4 mm 5 mps 743 mmHg 66%
    14:00 +25°C° 0.6 mm 5 mps 743 mmHg 70%
    15:00 +23°C° 0.6 mm 5 mps 742 mmHg 75%
    16:00 +23°C° 0.6 mm 5 mps 742 mmHg 79%
    17:00 +23°C° 0.5 mm 4 mps 742 mmHg 82%
    18:00 +22°C° 0.5 mm 4 mps 742 mmHg 84%
    19:00 +21°C° 0.5 mm 4 mps 741 mmHg 87%
    20:00 +20°C° 1.1 mm 4 mps 741 mmHg 90%
    21:00 +19°C° 1.1 mm 4 mps 741 mmHg 92%
    22:00 +18°C° 1.1 mm 4 mps 741 mmHg 94%
    23:00 +18°C° 0.1 mm 4 mps 742 mmHg 95%

    21 June, Thursday

    Time Temperature Precipitation Wind Pressure Humidity
    00:00 +17°C° 0.1 mm 4 mps 742 mmHg 95%
    01:00 +17°C° 0.1 mm 3 mps 742 mmHg 96%
    02:00 +16°C° 0 mm 3 mps 742 mmHg 96%
    03:00 +14°C° 0 mm 3 mps 743 mmHg 96%
    04:00 +14°C° 0 mm 2 mps 743 mmHg 96%
    05:00 +15°C° 0 mm 2 mps 743 mmHg 93%
    06:00 +16°C° 0 mm 2 mps 743 mmHg 90%
    07:00 +17°C° 0 mm 2 mps 744 mmHg 87%
    08:00 +18°C° 0 mm 3 mps 744 mmHg 76%
    09:00 +20°C° 0 mm 4 mps 744 mmHg 65%
    10:00 +21°C° 0 mm 5 mps 744 mmHg 54%
    11:00 +21°C° 0 mm 5 mps 744 mmHg 53%
    12:00 +22°C° 0 mm 5 mps 744 mmHg 52%
    13:00 +22°C° 0 mm 5 mps 744 mmHg 51%
    14:00 +22°C° 0 mm 4 mps 744 mmHg 53%
    15:00 +22°C° 0 mm 4 mps 744 mmHg 56%
    16:00 +22°C° 0 mm 4 mps 744 mmHg 58%
    17:00 +21°C° 0.2 mm 4 mps 744 mmHg 65%
    18:00 +20°C° 0.2 mm 3 mps 744 mmHg 72%
    19:00 +19°C° 0.2 mm 3 mps 744 mmHg 79%
    20:00 +17°C° 0 mm 2 mps 744 mmHg 82%
    21:00 +16°C° 0 mm 2 mps 744 mmHg 85%
    22:00 +14°C° 0 mm 2 mps 745 mmHg 88%
    23:00 +14°C° 0 mm 2 mps 745 mmHg 88%

    22 June, Friday

    Time Temperature Precipitation Wind Pressure Humidity
    00:00 +14°C° 0 mm 2 mps 745 mmHg 88%
    01:00 +14°C° 0 mm 2 mps 745 mmHg 88%
    02:00 +13°C° 0 mm 2 mps 745 mmHg 90%
    03:00 +13°C° 0 mm 2 mps 745 mmHg 92%
    04:00 +12°C° 0 mm 2 mps 745 mmHg 94%
    05:00 +12°C° 0 mm 3 mps 745 mmHg 91%
    06:00 +13°C° 0 mm 3 mps 745 mmHg 87%
    07:00 +15°C° 0 mm 4 mps 746 mmHg 83%
    08:00 +17°C° 0.1 mm 4 mps 746 mmHg 74%
    09:00 +17°C° 0.1 mm 5 mps 746 mmHg 65%
    10:00 +19°C° 0.1 mm 6 mps 746 mmHg 56%
    11:00 +20°C° 0 mm 7 mps 746 mmHg 55%
    12:00 +20°C° 0 mm 7 mps 746 mmHg 54%
    13:00 +20°C° 0 mm 7 mps 746 mmHg 52%
    14:00 +20°C° 0 mm 7 mps 747 mmHg 54%
    15:00 +20°C° 0 mm 7 mps 747 mmHg 55%
    16:00 +20°C° 0 mm 6 mps 747 mmHg 56%
    17:00 +19°C° 0 mm 5 mps 747 mmHg 60%
    18:00 +19°C° 0 mm 5 mps 747 mmHg 65%
    19:00 +18°C° 0 mm 4 mps 747 mmHg 69%
    20:00 +17°C° 0 mm 3 mps 748 mmHg 74%
    21:00 +14°C° 0 mm 3 mps 748 mmHg 80%
    22:00 +14°C° 0 mm 2 mps 748 mmHg 85%
    23:00 +13°C° 0 mm 2 mps 748 mmHg 88%

    23 June, Saturday

    Time Temperature Precipitation Wind Pressure Humidity
    00:00 +13°C° 0 mm 2 mps 749 mmHg 90%
    01:00 +12°C° 0 mm 2 mps 749 mmHg 92%
    02:00 +12°C° 0 mm 1 mps 749 mmHg 93%
    03:00 +12°C° 0 mm 1 mps 749 mmHg 94%
    04:00 +11°C° 0 mm 1 mps 750 mmHg 94%
    05:00 +13°C° 0 mm 1 mps 750 mmHg 90%
    06:00 +15°C° 0 mm 1 mps 750 mmHg 85%
    07:00 +18°C° 0 mm 1 mps 750 mmHg 81%
    08:00 +18°C° 0 mm 2 mps 750 mmHg 73%
    09:00 +20°C° 0 mm 2 mps 750 mmHg 66%
    10:00 +21°C° 0 mm 3 mps 750 mmHg 58%
    11:00 +22°C° 0 mm 3 mps 750 mmHg 56%
    12:00 +23°C° 0 mm 4 mps 750 mmHg 54%
    13:00 +25°C° 0 mm 4 mps 750 mmHg 52%
    14:00 +25°C° 0 mm 4 mps 750 mmHg 53%
    15:00 +25°C° 0 mm 4 mps 750 mmHg 54%
    16:00 +25°C° 0 mm 4 mps 750 mmHg 56%
    17:00 +24°C° 0 mm 3 mps 750 mmHg 61%
    18:00 +24°C° 0 mm 2 mps 750 mmHg 67%
    19:00 +23°C° 0 mm 2 mps 750 mmHg 73%
    20:00 +21°C° 0 mm 1 mps 751 mmHg 77%
    21:00 +19°C° 0 mm 1 mps 751 mmHg 82%
    22:00 +15°C° 0 mm 0 mps 751 mmHg 86%
    23:00 +16°C° 0 mm 1 mps 751 mmHg 87%
    Show more